Location: Stockholm
(59.3330°N, 18.0500°E)
Time: 13:49:16
(UTC+01:00)

Envisat - Pass Details

Date: 05 December 2022
Orbit: 763 x 765 km, 98.2° (Epoch: 29 January)

Event Time Altitude Azimuth Distance (km) Brightness Sun altitude
Rises 02:22:34 0° 24° (NNE) 3,249 6.9 -43.0°
Reaches altitude 10° 02:26:10 10° 51° (NE) 2,316 6.1 -42.7°
Enters shadow 02:28:16 13° 75° (ENE) 2,077 5.8 -42.4°
